Location: Unspecified
(48.7670°N, 0.0000°E)
Time: 17:55:47
(UTC+00:00)

Altair - Pass Details

Date: 29 June 2019
Orbit: 1501 x 1683 km, 47.2° (Epoch: 17 July)

Event Time Altitude Azimuth Distance (km) Brightness Sun altitude
Rises 19:37:15 0° 254° (WSW) 4,686 10.7 3.2°
Reaches altitude 10° 19:40:15 10° 253° (WSW) 3,724 10.2 2.8°
Maximum altitude 19:49:42 79° 169° (S) 1,618 7.7 1.5°
Drops below altitude 10° 19:59:34 10° 85° (E) 3,873 9.2 0.1°
Sets 20:02:45 0° 85° (E) 4,881 9.7 -0.3°
